Current Version              Previous Version:    01  02  03  04  05  06  07  08  09  10  11  12  13  14  15  16  17  18  19  20  21  22  23  24  25  26  27  28  29  30  
   31  32  33  34  35  36  37  38  39  40  41  42  43  44  45  46  47  48  49  50  51  52  53  54  55  56  57  58  59  60  

[Printable]
405
ASUS44 KEWX 010410
RWRTX
SOUTH TEXAS REGIONAL WEATHER ROUNDUP
NATIONAL WEATHER SERVICE AUSTIN/SAN ANTONIO TX
1100 PM CDT THU JUL 31 2014

NOTE: "FAIR" INDICATED FEW OR NO CLOUDS BELOW 12,000 FEET WITH NO
SIGNIFICANT WEATHER AND/OR OBSTRUCTIONS TO VISIBILITY.

* - THESE STATIONS ARE NOT NWS OR FAA STATIONS...AND ARE NOT SUBJECT
    TO NWS AND FAA QUALITY CONTROL.

TXZ171-172-183>190-010500-
TEXAS HILL COUNTRY AND EDWARDS PLATEAU

CITY           SKY/WX    TMP DP  RH WIND       PRES   REMARKS
JUNCTION       CLEAR     79  64  60 NE5       30.05R
*LLANO         CLEAR     77  64  65 E3        30.08R
BURNET         CLEAR     76  63  64 NE10      30.06R
*HORSESHOE BAY CLEAR     78  63  60 NE5       30.03R
*KERRVILLE     PTCLDY    82  67  60 N8        30.03R
*FREDERICKSBRG MOCLDY    79  63  56 NE9       30.04R
*ROCKSPRINGS   CLEAR     81  64  57 NE7       30.08R
*BOERNE STAGE  MOCLDY    79  66  65 N5        30.02R
*CASTROVILLE   MOCLDY    88  67  49 NE14      29.97R HX  91
HONDO          MOCLDY    83  71  67 NE9       29.96R
*UVALDE        PTCLDY    81  69  67 NE5       29.94R
DEL RIO        CLOUDY    84  71  65 NE8       29.93R
LAUGHLIN AFB   NOT AVBL
CARRIZO SPRGS  CLEAR     88  68  51 N3        29.89R HX  91
$$

TXZ173-191>194-202-209-217>225-228-010500-
CENTRAL AND SOUTH CENTRAL TEXAS

CITY           SKY/WX    TMP DP  RH WIND       PRES   REMARKS
GEORGETOWN     CLOUDY    79  64  61 N7        30.02R
AUSTIN/BERGSTM PTCLDY    82  67  60 NE14      29.99R
AUSTIN/MABRY   MOCLDY    81  66  60 VRB5      30.01R
*AUSTIN/EXEC   CLOUDY    79  66  65 NE10      30.01S
*LAGO VISTA    CLOUDY    78  63  60 NE8       30.03R
SAN MARCOS     PTCLDY    81  66  61 NE8       30.00R
NEW BRAUNFELS  CLOUDY    84  70  62 NE13      29.97R
RANDOLPH AFB   NOT AVBL
PT SAN ANTONIO NOT AVBL
SAN ANTONIO    MOCLDY    88  68  51 NE14      29.98R HX  91
STINSON FIELD  MOCLDY    89  71  55 NE7       29.95R HX  95
*PLEASANTON    MOCLDY    86  69  56 SE8       29.94R HX  90
*LA GRANGE     CLOUDY    79  78  97 CALM      29.94F
*GIDDINGS      MOCLDY    82  71  69 N6        30.01S
*GONZALES      CLOUDY    81  73  78 E5        29.96R
$$

TXZ163>164-176>182-195>201-210>213-226-227-235-010500-
SOUTHEAST TEXAS

CITY           SKY/WX    TMP DP  RH WIND       PRES   REMARKS
COLLEGE STN    MOCLDY    78  73  84 N3        29.98R
*BRYAN         MOCLDY   N/A N/A N/A CALM      29.97R
*CALDWELL      CLOUDY    79  72  78 CALM      30.02R
*CROCKETT      MOCLDY    79  77  94 NW3       29.98S
*BRENHAM       CLOUDY    78  74  89 W7        29.98R
HUNTSVILLE     CLOUDY    77  74  90 CALM      29.98R
CONROE         HVY RAIN  77  75  93 VRB3      29.98R
HOUSTON BUSH   TSTM      75  75 100 S9        29.94R
HOUSTON HOBBY  TSTM      82  77  84 CALM      29.96R HX  90
*HOUSTON SW AP LGT RAIN  80  76  88 S5        29.96R
PEARLAND       LGT RAIN  83  77  82 S8        29.96R HX  92
HOUSTON HOOKS  HVY RAIN  75  75 100 CALM      29.95R VSB 1/4
ELLINGTON FLD  MOCLDY    82  75  78 S9        29.97R THUNDER
SUGAR LAND     CLOUDY    82  78  88 CALM      29.96R HX  91
*HOUSTON EXEC  CLOUDY    75  75 100 CALM      29.97R
*CLEVELAND MUN TSTM      73  73  97 SE5       30.00R VSB 3/4
*WHARTON       CLOUDY    81  77  87 S6        29.94S
$$

TXZ214>216-236>238-010500-
THE UPPER TEXAS COAST

CITY           SKY/WX    TMP DP  RH WIND       PRES   REMARKS
*ORANGE        CLOUDY    82  76  83 SE6       29.96F
PORT ARTHUR    CLOUDY    81  76  84 S5        29.96R
GALVESTON      CLOUDY    80  77  90 S13       29.97R
ANGLETON       CLOUDY    81  77  88 S8        29.94S
*BAY CITY      CLOUDY    83  83  98 S9        29.93S HX 100
PALACIOS       CLOUDY    85  78  80 S16       29.92S HX  96
$$

TXZ229>234-239>247-010500-
TEXAS COASTAL BEND AND RIO GRANDE PLAINS

CITY           SKY/WX    TMP DP  RH WIND       PRES   REMARKS
VICTORIA       CLOUDY    83  77  82 S12       29.94R HX  92
*BEEVILLE      CLOUDY    82  74  74 S14G20    29.94R
ROCKPORT       CLEAR     83  77  82 S12       29.94R HX  92
*PORT ARANSAS  CLOUDY    81  78  91 S10       29.94R
*PORT LAVACA   CLOUDY    82  76  83 S9        29.93S
*INGLESIDE     CLEAR     84  77  79 S14       29.94R HX  93
CORPUS CHRISTI MOCLDY    82  76  81 S15       29.93R
CORPUS NAS     PTCLDY    82  78  88 S15       29.93R HX  91
*ROBSTOWN      NOT AVBL
ALICE          CLEAR     83  74  74 SE13      29.92R
KINGSVILLE NAS PTCLDY    83  77  82 S13       29.93R HX  92
COTULLA        CLEAR     91  70  49 SE12      29.90R HX  96
*FAITH RANCH   CLEAR     90  64  43 N5        29.88R HX  91
LAREDO         CLEAR     94  68  42 SE18      29.91R HX  98
$$

TXZ248>255-010500-
DEEP SOUTH TEXAS

CITY           SKY/WX    TMP DP  RH WIND       PRES   REMARKS
BROWNSVILLE    PTCLDY    82  76  81 SE9       29.93R
PORT ISABEL    CLEAR     83  76  79 SE10      29.93R HX  91
*SOUTH PADRE     N/A     81  77  89 CALM      29.94R
HARLINGEN      CLEAR     82  75  79 SE9       29.92R
*HEBBRONVILLE  CLEAR     86  68  53 SE9       29.93R
MCALLEN        CLEAR     84  74  71 SE15      29.92R HX  91
*WESLACO       CLEAR     83  72  69 SE9       29.91S
FALFURRIAS     CLEAR     77  72  83 SE10      29.91R
EDINBURG       CLEAR     84  73  67 SE9       29.92R HX  90
*ZAPATA        NOT AVBL
$$

TXZ213>215-236>238-242>244-246-247-251-254-255-010500-
CMAN STATIONS

STATION/POSITION TIME  TEMP    WIND        PRES    WAVE
                       AIR SEA DIR/SP/G            HT/PER
                 (UTC) (F)     (DEG/KT/KT) (MB)    (FT/S)
SABINE PASS      0400   84 87  170/ 10/ 13 1014.2
SEA RIM ST PARK  0400   84     180/ 11/ 13 1015.2
NORTH JETTY/GLS  0400   84 89  200/ 13/ 16   N/A
EAGLE POINT      0400   85 87  200/ 15/ 18 1014.1
MORGANS POINT    0400   84 91  190/  6/  9 1014.5
MISSION/ARANSAS  0300   83     160/ 19     1013.0
PORT O`CONNOR    0400          160/ 14/ 18   N/A
PORT ARANSAS     0400   81 83  150/ 11/ 11 1014.5
MALAQUITE BEACH  0400   80 81  150/ 11/ 12 1013.1
BAFFIN BAY       0400   81 82  150/ 13/ 17 1013.6
PORT ISABEL      0400   82 83  140/  6/  9 1013.8
$$

GMZ080-GMZ150>470-010500-
OFFSHORE BUOY REPORTS

STATION/POSITION TIME  TEMP    WIND        PRES    WAVE
                       AIR SEA DIR/SP/G            HT/PER
                 (UTC) (F)     (DEG/KT/KT) (MB)    (FT/S)
90 E PT ARANSAS  0400   84 84  170/ 14/ 16 1014.6    2/ 6
35 NE PT MANSFLD 0400   84 84  160/ 14/ 17 1013.6    3/ 6
200 E PT ISABEL  0400   85 86  130/  6/  8 1014.7    1/ 5
$$